Location: Newark
(28.1667°N, 17.3333°W)
Time: 09:55:03
(UTC+00:00)

ISS - Visible Passes

Search period start: 18 February 2019 00:00
Search period end: 28 February 2019 00:00
Orbit: 403 x 411 km, 51.6° (Epoch: 18 February)

Date Brightness Start Highest point End Pass type
(mag) Time Alt. Az. Time Alt. Az. Time Alt. Az.
19 Feb -1.0 07:15:05 10° S 07:17:39 22° SE 07:20:14 10° ENE visible
21 Feb -3.7 07:07:51 10° SW 07:11:05 79° SE 07:14:21 10° NE visible
22 Feb -2.1 06:17:24 14° S 06:19:42 31° SE 06:22:38 10° ENE visible
23 Feb -0.6 05:29:12 13° ESE 05:29:12 13° ESE 05:30:10 10° E visible
23 Feb -2.9 07:01:58 11° WSW 07:04:38 29° NW 07:07:33 10° NNE visible
24 Feb -3.7 06:13:26 62° N 06:13:26 62° N 06:16:21 10° NE visible
25 Feb -0.4 05:24:40 11° NE 05:24:40 11° NE 05:24:46 10° NE visible
25 Feb -1.6 06:57:24 11° NW 06:58:20 12° NW 06:59:40 10° NNW visible
26 Feb -1.4 06:08:24 15° N 06:08:24 15° N 06:09:15 10° NNE visible
